| time (UTC) | temp C | wind direction | speed KPH | gust KPH | rain 1hr cm | rain 24hr cm | rain mn cm | humidity % | barometer mb |
| 20260831045320 | 21 | 20 | 3.2 | 4.8 | 0.00 | 0.00 | 0.00 | 95 | 1021.3 |
| 20260831044815 | 21 | 56 | 3.2 | 1.6 | 0.00 | 0.00 | 0.00 | 94 | 1021.2 |
| 20260831044310 | 21 | 131 | 0.0 | 1.6 | 0.00 | 0.00 | 0.00 | 94 | 1021.1 |
| 20260831043807 | 21 | 52 | 1.6 | 1.6 | 0.00 | 0.00 | 0.00 | 94 | 1021.2 |
| 20260831043306 | 21 | 49 | 3.2 | 4.8 | 0.00 | 0.00 | 0.00 | 95 | 1021.3 |
| 20260831042801 | 21 | 11 | 6.4 | 6.4 | 0.00 | 0.00 | 0.00 | 95 | 1021.0 |
| 20260831042300 | 21 | 349 | 4.8 | 6.4 | 0.00 | 0.00 | 0.00 | 95 | 1021.2 |
| 20260831041756 | 20 | 106 | 0.0 | 4.8 | 0.00 | 0.00 | 0.00 | 95 | 1021.0 |
| 20260831041255 | 20 | 133 | 4.8 | 6.4 | 0.00 | 0.00 | 0.00 | 95 | 1020.9 |
| 20260831040750 | 20 | 116 | 4.8 | 4.8 | 0.00 | 0.00 | 0.00 | 95 | 1021.0 |
| 20260831040249 | 20 | 112 | 1.6 | 1.6 | 0.00 | 0.00 | 0.00 | 95 | 1021.0 |
| 20260831035748 | 20 | 135 | 4.8 | 6.4 | 0.00 | 0.00 | 0.00 | 95 | 1021.2 |
| 20260831035247 | 20 | 127 | 0.0 | 0.0 | 0.00 | 0.00 | 0.00 | 94 | 1021.1 |
| 20260831034746 | 20 | 127 | 1.6 | 1.6 | 0.00 | 0.00 | 0.00 | 94 | 1021.4 |
| 20260831034242 | 20 | 127 | 0.0 | 0.0 | 0.00 | 0.00 | 0.00 | 94 | 1021.3 |
| 20260831033738 | 20 | 127 | 1.6 | 1.6 | 0.00 | 0.00 | 0.00 | 94 | 1021.4 |
| 20260831033237 | 20 | 127 | 1.6 | 1.6 | 0.00 | 0.00 | 0.00 | 94 | 1021.3 |
| 20260831032732 | 20 | 127 | 0.0 | 1.6 | 0.00 | 0.00 | 0.00 | 94 | 1021.5 |
| 20260831032227 | 20 | 127 | 0.0 | 1.6 | 0.00 | 0.00 | 0.00 | 94 | 1021.6 |
| 20260831031722 | 20 | 127 | 1.6 | 1.6 | 0.00 | 0.00 | 0.00 | 94 | 1021.4 |
| 20260831031217 | 20 | 125 | 1.6 | 1.6 | 0.00 | 0.00 | 0.00 | 93 | 1021.4 |
| 20260831030716 | 21 | 126 | 0.0 | 1.6 | 0.00 | 0.00 | 0.00 | 93 | 1021.5 |
| 20260831030214 | 21 | 112 | 0.0 | 1.6 | 0.00 | 0.00 | 0.00 | 93 | 1021.4 |
| 20260831025708 | 21 | 120 | 0.0 | 4.8 | 0.00 | 0.00 | 0.00 | 93 | 1021.5 |
| 20260831025203 | 21 | 119 | 1.6 | 1.6 | 0.00 | 0.00 | 0.00 | 92 | 1021.6 |
| 20260831024659 | 21 | 130 | 3.2 | 11.3 | 0.00 | 0.00 | 0.00 | 92 | 1021.7 |
| 20260831024157 | 21 | 124 | 1.6 | 6.4 | 0.00 | 0.00 | 0.00 | 92 | 1021.7 |
| 20260831023655 | 21 | 83 | 0.0 | 0.0 | 0.00 | 0.00 | 0.00 | 92 | 1021.9 |
| 20260831023149 | 21 | 83 | 0.0 | 0.0 | 0.00 | 0.00 | 0.00 | 92 | 1021.9 |
| 20260831022644 | 21 | 94 | 3.2 | 4.8 | 0.00 | 0.00 | 0.00 | 92 | 1021.9 |
| 20260831022134 | 21 | 110 | 1.6 | 4.8 | 0.00 | 0.00 | 0.00 | 92 | 1022.1 |
| 20260831021633 | 21 | 105 | 1.6 | 1.6 | 0.00 | 0.00 | 0.00 | 92 | 1021.8 |
| 20260831021128 | 21 | 100 | 0.0 | 0.0 | 0.00 | 0.00 | 0.00 | 93 | 1021.9 |
| 20260831020624 | 21 | 99 | 3.2 | 6.4 | 0.00 | 0.00 | 0.00 | 92 | 1021.9 |
| 20260831020119 | 21 | 112 | 3.2 | 1.6 | 0.00 | 0.00 | 0.00 | 92 | 1022.0 |
| 20260831015614 | 21 | 98 | 0.0 | 1.6 | 0.00 | 0.00 | 0.00 | 92 | 1022.2 |
| 20260831015108 | 21 | 56 | 1.6 | 4.8 | 0.00 | 0.00 | 0.00 | 91 | 1022.2 |
| 20260831014603 | 21 | 63 | 3.2 | 1.6 | 0.00 | 0.00 | 0.00 | 91 | 1022.2 |
| 20260831014059 | 21 | 68 | 3.2 | 6.4 | 0.00 | 0.00 | 0.00 | 91 | 1022.1 |
| 20260831013555 | 21 | 66 | 0.0 | 1.6 | 0.00 | 0.00 | 0.00 | 91 | 1022.2 |
| 20260831013054 | 21 | 68 | 0.0 | 1.6 | 0.00 | 0.00 | 0.00 | 92 | 1022.2 |
| 20260831012554 | 21 | 68 | 1.6 | 1.6 | 0.00 | 0.00 | 0.00 | 91 | 1022.2 |
| 20260831012049 | 21 | 62 | 0.0 | 0.0 | 0.00 | 0.00 | 0.00 | 92 | 1022.1 |
| 20260831011549 | 21 | 46 | 0.0 | 0.0 | 0.00 | 0.00 | 0.00 | 92 | 1022.1 |
| 20260831011044 | 21 | 47 | 1.6 | 1.6 | 0.00 | 0.00 | 0.00 | 91 | 1022.2 |
| 20260831010539 | 21 | 47 | 0.0 | 0.0 | 0.00 | 0.00 | 0.00 | 91 | 1022.2 |
| 20260831010036 | 21 | 46 | 0.0 | 0.0 | 0.00 | 0.00 | 0.00 | 91 | 1022.0 |
| 20260831005531 | 21 | 46 | 0.0 | 0.0 | 0.00 | 0.00 | 0.00 | 90 | 1022.1 |
| 20260831005030 | 22 | 46 | 0.0 | 1.6 | 0.00 | 0.00 | 0.00 | 90 | 1022.1 |
| 20260831004527 | 22 | 50 | 4.8 | 4.8 | 0.00 | 0.00 | 0.00 | 90 | 1022.0 |
| 20260831004022 | 22 | 22 | 0.0 | 4.8 | 0.00 | 0.00 | 0.00 | 90 | 1021.8 |
| 20260831003518 | 22 | 35 | 0.0 | 1.6 | 0.00 | 0.00 | 0.00 | 90 | 1021.8 |
| 20260831003014 | 22 | 53 | 0.0 | 4.8 | 0.00 | 0.00 | 0.00 | 90 | 1021.7 |
| 20260831002512 | 22 | 24 | 1.6 | 4.8 | 0.00 | 0.00 | 0.00 | 89 | 1021.7 |
| 20260831002008 | 22 | 58 | 6.4 | 8.0 | 0.00 | 0.00 | 0.00 | 89 | 1021.7 |
| 20260831001503 | 22 | 15 | 8.0 | 8.0 | 0.00 | 0.00 | 0.00 | 89 | 1021.4 |
| 20260831001000 | 22 | 8 | 4.8 | 4.8 | 0.00 | 0.00 | 0.00 | 89 | 1021.4 |
| 20260831000455 | 22 | 19 | 4.8 | 6.4 | 0.00 | 0.00 | 0.00 | 88 | 1021.1 |
| 20260830235953 | 22 | 27 | 3.2 | 6.4 | 0.00 | 0.00 | 0.00 | 88 | 1021.1 |
| 20260830235448 | 22 | 16 | 1.6 | 1.6 | 0.00 | 0.00 | 0.00 | 88 | 1021.0 |
| 20260830234944 | 22 | 38 | 1.6 | 4.8 | 0.00 | 0.00 | 0.00 | 87 | 1021.1 |
| 20260830234438 | 22 | 18 | 4.8 | 6.4 | 0.00 | 0.00 | 0.00 | 87 | 1020.8 |
| 20260830233934 | 23 | 26 | 3.2 | 6.4 | 0.00 | 0.00 | 0.00 | 85 | 1020.9 |
| 20260830233430 | 23 | 33 | 1.6 | 4.8 | 0.00 | 0.00 | 0.00 | 83 | 1020.6 |
| 20260830232925 | 23 | 28 | 3.2 | 4.8 | 0.00 | 0.00 | 0.00 | 81 | 1020.7 |
| 20260830232420 | 23 | 9 | 3.2 | 4.8 | 0.00 | 0.00 | 0.00 | 79 | 1020.5 |
| 20260830231917 | 23 | 28 | 0.0 | 0.0 | 0.00 | 0.00 | 0.00 | 80 | 1020.4 |
| 20260830231412 | 23 | 32 | 3.2 | 4.8 | 0.00 | 0.00 | 0.00 | 80 | 1020.5 |
| 20260830230911 | 23 | 1 | 1.6 | 1.6 | 0.00 | 0.00 | 0.00 | 78 | 1020.4 |
| 20260830230407 | 23 | 1 | 3.2 | 4.8 | 0.00 | 0.00 | 0.00 | 78 | 1020.3 |
| 20260830225906 | 23 | 5 | 6.4 | 6.4 | 0.00 | 0.00 | 0.00 | 78 | 1019.9 |
| 20260830225401 | 23 | 65 | 1.6 | 1.6 | 0.00 | 0.00 | 0.00 | 77 | 1019.8 |
| 20260830224856 | 23 | 120 | 3.2 | 4.8 | 0.00 | 0.00 | 0.00 | 78 | 1019.7 |
| 20260830224355 | 23 | 102 | 0.0 | 4.8 | 0.00 | 0.00 | 0.00 | 79 | 1019.5 |
| 20260830223852 | 23 | 127 | 6.4 | 8.0 | 0.00 | 0.00 | 0.00 | 78 | 1019.7 |
| 20260830223348 | 24 | 129 | 4.8 | 6.4 | 0.00 | 0.00 | 0.00 | 77 | 1019.8 |
| 20260830222847 | 24 | 106 | 0.0 | 1.6 | 0.00 | 0.00 | 0.00 | 79 | 1019.9 |
| 20260830222343 | 24 | 106 | 0.0 | 1.6 | 0.00 | 0.00 | 0.00 | 75 | 1020.1 |
| 20260830221838 | 24 | 106 | 1.6 | 1.6 | 0.00 | 0.00 | 0.00 | 75 | 1020.1 |
| 20260830221335 | 25 | 105 | 1.6 | 4.8 | 0.00 | 0.00 | 0.00 | 76 | 1020.1 |
| 20260830220830 | 25 | 98 | 3.2 | 1.6 | 0.00 | 0.00 | 0.00 | 72 | 1020.1 |
| 20260830220324 | 25 | 98 | 0.0 | 0.0 | 0.00 | 0.00 | 0.00 | 70 | 1020.3 |
| 20260830215822 | 25 | 98 | 0.0 | 0.0 | 0.00 | 0.00 | 0.00 | 71 | 1020.3 |
| 20260830215317 | 25 | 98 | 0.0 | 0.0 | 0.00 | 0.00 | 0.00 | 70 | 1020.2 |
| 20260830214812 | 25 | 98 | 1.6 | 1.6 | 0.00 | 0.00 | 0.00 | 73 | 1020.3 |
| 20260830214307 | 25 | 98 | 0.0 | 0.0 | 0.00 | 0.00 | 0.00 | 74 | 1020.5 |
| 20260830213806 | 25 | 98 | 0.0 | 0.0 | 0.00 | 0.00 | 0.00 | 74 | 1020.3 |
| 20260830213301 | 25 | 98 | 0.0 | 1.6 | 0.00 | 0.00 | 0.00 | 71 | 1020.3 |
| 20260830212757 | 25 | 98 | 0.0 | 0.0 | 0.00 | 0.00 | 0.00 | 74 | 1020.2 |
| 20260830212253 | 25 | 95 | 0.0 | 0.0 | 0.00 | 0.00 | 0.00 | 71 | 1020.3 |
| 20260830211752 | 25 | 95 | 0.0 | 0.0 | 0.00 | 0.00 | 0.00 | 72 | 1020.4 |
| 20260830211251 | 25 | 96 | 0.0 | 0.0 | 0.00 | 0.00 | 0.00 | 72 | 1020.5 |
| 20260830210748 | 25 | 95 | 0.0 | 0.0 | 0.00 | 0.00 | 0.00 | 73 | 1020.4 |
| 20260830210246 | 25 | 94 | 1.6 | 1.6 | 0.00 | 0.00 | 0.00 | 73 | 1020.3 |
| 20260830205744 | 25 | 125 | 3.2 | 4.8 | 0.00 | 0.00 | 0.00 | 73 | 1020.4 |
| 20260830205239 | 25 | 210 | 0.0 | 4.8 | 0.00 | 0.00 | 0.00 | 74 | 1020.5 |
| 20260830204734 | 25 | 143 | 3.2 | 4.8 | 0.00 | 0.00 | 0.00 | 74 | 1020.6 |
| 20260830204233 | 25 | 116 | 0.0 | 1.6 | 0.00 | 0.00 | 0.00 | 73 | 1020.7 |
| 20260830203729 | 25 | 115 | 1.6 | 1.6 | 0.00 | 0.00 | 0.00 | 73 | 1020.8 |
| 20260830203225 | 25 | 264 | 0.0 | 1.6 | 0.00 | 0.00 | 0.00 | 75 | 1020.6 |
| 20260830202724 | 25 | 244 | 3.2 | 4.8 | 0.00 | 0.00 | 0.00 | 75 | 1020.7 |
| 20260830202220 | 25 | 104 | 1.6 | 1.6 | 0.00 | 0.00 | 0.00 | 77 | 1020.7 |
| 20260830201719 | 25 | 104 | 3.2 | 4.8 | 0.00 | 0.00 | 0.00 | 76 | 1020.8 |
| 20260830201214 | 25 | 117 | 4.8 | 4.8 | 0.00 | 0.00 | 0.00 | 74 | 1020.8 |
| 20260830200710 | 25 | 122 | 1.6 | 1.6 | 0.00 | 0.00 | 0.00 | 75 | 1020.9 |
| 20260830200209 | 25 | 122 | 1.6 | 1.6 | 0.00 | 0.00 | 0.00 | 75 | 1021.2 |
| 20260830195704 | 25 | 105 | 1.6 | 4.8 | 0.00 | 0.00 | 0.00 | 74 | 1021.0 |
| 20260830195202 | 25 | 111 | 4.8 | 4.8 | 0.00 | 0.00 | 0.00 | 72 | 1021.2 |
| 20260830194701 | 25 | 112 | 1.6 | 4.8 | 0.00 | 0.00 | 0.00 | 72 | 1021.2 |
| 20260830194156 | 25 | 109 | 0.0 | 0.0 | 0.00 | 0.00 | 0.00 | 72 | 1021.3 |
| 20260830193650 | 25 | 77 | 0.0 | 1.6 | 0.00 | 0.00 | 0.00 | 72 | 1021.4 |
| 20260830193145 | 25 | 77 | 3.2 | 1.6 | 0.00 | 0.00 | 0.00 | 69 | 1021.3 |
| 20260830192640 | 25 | 339 | 0.0 | 0.0 | 0.00 | 0.00 | 0.00 | 68 | 1021.6 |
| 20260830192135 | 25 | 346 | 0.0 | 0.0 | 0.00 | 0.00 | 0.00 | 67 | 1021.7 |
| 20260830191631 | 25 | 351 | 0.0 | 0.0 | 0.00 | 0.00 | 0.00 | 69 | 1021.8 |
| 20260830191125 | 26 | 29 | 1.6 | 1.6 | 0.00 | 0.00 | 0.00 | 65 | 1021.9 |
| 20260830190621 | 25 | 29 | 0.0 | 1.6 | 0.00 | 0.00 | 0.00 | 66 | 1021.8 |
| 20260830190115 | 25 | 354 | 4.8 | 6.4 | 0.00 | 0.00 | 0.00 | 65 | 1021.9 |
| 20260830185609 | 25 | 58 | 1.6 | 1.6 | 0.00 | 0.00 | 0.00 | 66 | 1022.0 |
| 20260830185105 | 25 | 20 | 1.6 | 1.6 | 0.00 | 0.00 | 0.00 | 69 | 1022.2 |
| 20260830184603 | 25 | 11 | 0.0 | 6.4 | 0.00 | 0.00 | 0.00 | 66 | 1022.0 |
| 20260830184058 | 26 | 18 | 3.2 | 8.0 | 0.00 | 0.00 | 0.00 | 66 | 1022.1 |
| 20260830183552 | 25 | 1 | 0.0 | 1.6 | 0.00 | 0.00 | 0.00 | 69 | 1022.3 |
| 20260830183048 | 25 | 0 | 4.8 | 6.4 | 0.00 | 0.00 | 0.00 | 65 | 1022.2 |
| 20260830182538 | 26 | 8 | 6.4 | 8.0 | 0.00 | 0.00 | 0.00 | 64 | 1022.3 |
| 20260830182034 | 26 | 8 | 0.0 | 1.6 | 0.00 | 0.00 | 0.00 | 65 | 1022.3 |
| 20260830181530 | 25 | 356 | 3.2 | 4.8 | 0.00 | 0.00 | 0.00 | 68 | 1022.4 |
| 20260830181029 | 25 | 1 | 8.0 | 12.9 | 0.00 | 0.00 | 0.00 | 67 | 1022.4 |
| 20260830180524 | 25 | 347 | 3.2 | 1.6 | 0.00 | 0.00 | 0.00 | 69 | 1022.3 |
| 20260830180023 | 25 | 286 | 4.8 | 4.8 | 0.00 | 0.00 | 0.00 | 71 | 1022.4 |
| 20260830175522 | 25 | 357 | 6.4 | 6.4 | 0.00 | 0.00 | 0.00 | 68 | 1022.4 |
| 20260830175018 | 25 | 6 | 3.2 | 4.8 | 0.00 | 0.00 | 0.00 | 70 | 1022.5 |
| 20260830174513 | 25 | 1 | 8.0 | 8.0 | 0.00 | 0.00 | 0.00 | 68 | 1022.7 |
| 20260830174008 | 25 | 352 | 4.8 | 8.0 | 0.00 | 0.00 | 0.00 | 69 | 1022.6 |
| 20260830173503 | 25 | 295 | 3.2 | 4.8 | 0.00 | 0.00 | 0.00 | 69 | 1022.7 |
| 20260830172958 | 25 | 5 | 1.6 | 6.4 | 0.00 | 0.00 | 0.00 | 69 | 1022.8 |
| 20260830172455 | 25 | 223 | 0.0 | 4.8 | 0.00 | 0.00 | 0.00 | 71 | 1022.8 |
| 20260830171950 | 25 | 358 | 1.6 | 1.6 | 0.00 | 0.00 | 0.00 | 74 | 1022.8 |
| 20260830171445 | 24 | 4 | 0.0 | 1.6 | 0.00 | 0.00 | 0.00 | 75 | 1023.0 |
| 20260830170945 | 24 | 281 | 0.0 | 1.6 | 0.00 | 0.00 | 0.00 | 76 | 1023.0 |
| 20260830170440 | 23 | 296 | 0.0 | 0.0 | 0.00 | 0.00 | 0.00 | 78 | 1023.4 |
| 20260830165938 | 23 | 265 | 4.8 | 6.4 | 0.00 | 0.00 | 0.00 | 75 | 1023.1 |
| 20260830165435 | 23 | 267 | 3.2 | 4.8 | 0.00 | 0.00 | 0.00 | 77 | 1023.4 |
| 20260830164931 | 23 | 259 | 3.2 | 4.8 | 0.00 | 0.00 | 0.00 | 76 | 1023.4 |
| 20260830164426 | 23 | 6 | 1.6 | 1.6 | 0.00 | 0.00 | 0.00 | 78 | 1023.7 |
| 20260830163922 | 23 | 13 | 3.2 | 4.8 | 0.00 | 0.00 | 0.00 | 79 | 1023.4 |
| 20260830163419 | 23 | 8 | 0.0 | 1.6 | 0.00 | 0.00 | 0.00 | 79 | 1023.4 |
| 20260830162918 | 23 | 8 | 0.0 | 1.6 | 0.00 | 0.00 | 0.00 | 79 | 1023.4 |
| 20260830162414 | 23 | 12 | 1.6 | 4.8 | 0.00 | 0.00 | 0.00 | 79 | 1023.5 |
| 20260830161908 | 23 | 359 | 1.6 | 4.8 | 0.00 | 0.00 | 0.00 | 78 | 1023.4 |
| 20260830161408 | 24 | 17 | 0.0 | 0.0 | 0.00 | 0.00 | 0.00 | 80 | 1023.1 |
| 20260830160903 | 24 | 353 | 0.0 | 1.6 | 0.00 | 0.00 | 0.00 | 78 | 1023.3 |
| 20260830160359 | 23 | 351 | 0.0 | 0.0 | 0.00 | 0.00 | 0.00 | 75 | 1023.3 |
| 20260830155854 | 23 | 351 | 0.0 | 0.0 | 0.00 | 0.00 | 0.00 | 76 | 1023.1 |
| 20260830155350 | 24 | 17 | 0.0 | 1.6 | 0.00 | 0.00 | 0.00 | 74 | 1022.9 |
| 20260830154845 | 23 | 17 | 0.0 | 0.0 | 0.00 | 0.00 | 0.00 | 74 | 1022.9 |
| 20260830154341 | 23 | 17 | 0.0 | 0.0 | 0.00 | 0.00 | 0.00 | 75 | 1022.9 |
| 20260830153838 | 23 | 17 | 0.0 | 0.0 | 0.00 | 0.00 | 0.00 | 79 | 1022.9 |
| 20260830153333 | 23 | 17 | 0.0 | 0.0 | 0.00 | 0.00 | 0.00 | 79 | 1022.9 |
| 20260830152831 | 23 | 16 | 1.6 | 1.6 | 0.00 | 0.00 | 0.00 | 79 | 1023.0 |
| 20260830152326 | 23 | 16 | 0.0 | 0.0 | 0.00 | 0.00 | 0.00 | 77 | 1023.0 |
| 20260830151821 | 23 | 16 | 0.0 | 0.0 | 0.00 | 0.00 | 0.00 | 78 | 1023.1 |
| 20260830151320 | 23 | 358 | 1.6 | 1.6 | 0.00 | 0.00 | 0.00 | 76 | 1023.0 |
| 20260830150815 | 23 | 285 | 0.0 | 0.0 | 0.00 | 0.00 | 0.00 | 75 | 1023.0 |
| 20260830150314 | 23 | 285 | 0.0 | 1.6 | 0.00 | 0.00 | 0.00 | 76 | 1022.9 |
| 20260830145809 | 23 | 285 | 0.0 | 1.6 | 0.00 | 0.00 | 0.00 | 75 | 1022.8 |
| 20260830145306 | 23 | 284 | 1.6 | 1.6 | 0.00 | 0.00 | 0.00 | 74 | 1022.8 |
| 20260830144759 | 23 | 285 | 0.0 | 1.6 | 0.00 | 0.00 | 0.00 | 74 | 1022.7 |
| 20260830144255 | 23 | 285 | 0.0 | 0.0 | 0.00 | 0.00 | 0.00 | 75 | 1022.6 |
| 20260830143751 | 23 | 285 | 0.0 | 0.0 | 0.00 | 0.00 | 0.00 | 74 | 1022.6 |
| 20260830143250 | 23 | 285 | 0.0 | 0.0 | 0.00 | 0.00 | 0.00 | 75 | 1022.5 |
| 20260830142745 | 23 | 285 | 0.0 | 4.8 | 0.00 | 0.00 | 0.00 | 74 | 1022.5 |
| 20260830142240 | 23 | 285 | 1.6 | 1.6 | 0.00 | 0.00 | 0.00 | 74 | 1022.2 |
| 20260830141735 | 23 | 270 | 0.0 | 0.0 | 0.00 | 0.00 | 0.00 | 74 | 1022.3 |
| 20260830141230 | 23 | 270 | 0.0 | 1.6 | 0.00 | 0.00 | 0.00 | 73 | 1022.1 |
| 20260830140724 | 23 | 271 | 1.6 | 1.6 | 0.00 | 0.00 | 0.00 | 74 | 1021.9 |
| 20260830140220 | 23 | 260 | 1.6 | 1.6 | 0.00 | 0.00 | 0.00 | 72 | 1021.9 |
| 20260830135709 | 23 | 259 | 1.6 | 1.6 | 0.00 | 0.00 | 0.00 | 72 | 1021.7 |
| 20260830135204 | 23 | 287 | 3.2 | 11.3 | 0.00 | 0.00 | 0.00 | 71 | 1021.9 |
| 20260830134700 | 23 | 245 | 1.6 | 4.8 | 0.00 | 0.00 | 0.00 | 72 | 1022.0 |
| 20260830134155 | 23 | 272 | 1.6 | 1.6 | 0.00 | 0.00 | 0.00 | 72 | 1021.9 |
| 20260830133651 | 22 | 265 | 0.0 | 0.0 | 0.00 | 0.00 | 0.00 | 74 | 1021.8 |
| 20260830133146 | 22 | 265 | 0.0 | 0.0 | 0.00 | 0.00 | 0.00 | 75 | 1022.0 |
| 20260830132642 | 22 | 265 | 0.0 | 1.6 | 0.00 | 0.00 | 0.00 | 75 | 1021.8 |
| 20260830132137 | 22 | 265 | 0.0 | 0.0 | 0.00 | 0.00 | 0.00 | 76 | 1021.9 |
| 20260830131636 | 21 | 116 | 0.0 | 4.8 | 0.00 | 0.00 | 0.00 | 74 | 1021.9 |
| 20260830131136 | 21 | 221 | 1.6 | 4.8 | 0.00 | 0.00 | 0.00 | 74 | 1021.9 |
| 20260830130631 | 21 | 240 | 3.2 | 4.8 | 0.00 | 0.00 | 0.00 | 75 | 1021.8 |
| 20260830130126 | 21 | 138 | 1.6 | 1.6 | 0.00 | 0.00 | 0.00 | 78 | 1021.9 |
| 20260830125625 | 21 | 132 | 3.2 | 4.8 | 0.00 | 0.00 | 0.00 | 75 | 1022.0 |
| 20260830125120 | 21 | 259 | 0.0 | 1.6 | 0.00 | 0.00 | 0.00 | 76 | 1022.0 |
| 20260830124618 | 21 | 260 | 3.2 | 4.8 | 0.00 | 0.00 | 0.00 | 74 | 1022.2 |
| 20260830124114 | 21 | 126 | 3.2 | 4.8 | 0.00 | 0.00 | 0.00 | 76 | 1021.9 |
| 20260830123611 | 21 | 265 | 1.6 | 4.8 | 0.00 | 0.00 | 0.00 | 76 | 1022.1 |
| 20260830123106 | 21 | 228 | 1.6 | 1.6 | 0.00 | 0.00 | 0.00 | 76 | 1022.0 |
| 20260830122603 | 21 | 222 | 0.0 | 1.6 | 0.00 | 0.00 | 0.00 | 76 | 1021.9 |
| 20260830122059 | 21 | 262 | 1.6 | 6.4 | 0.00 | 0.00 | 0.00 | 76 | 1022.0 |
| 20260830121554 | 21 | 255 | 1.6 | 4.8 | 0.00 | 0.00 | 0.00 | 75 | 1022.0 |
| 20260830121054 | 21 | 118 | 0.0 | 1.6 | 0.00 | 0.00 | 0.00 | 79 | 1021.8 |
| 20260830120549 | 20 | 113 | 0.0 | 0.0 | 0.00 | 0.00 | 0.00 | 81 | 1022.0 |
| 20260830120046 | 19 | 113 | 0.0 | 0.0 | 0.00 | 0.00 | 0.00 | 81 | 1022.0 |
| 20260830115541 | 19 | 113 | 0.0 | 0.0 | 0.00 | 0.00 | 0.00 | 83 | 1021.9 |
| 20260830115036 | 18 | 262 | 0.0 | 1.6 | 0.00 | 0.00 | 0.00 | 86 | 1021.7 |
| 20260830114533 | 17 | 263 | 0.0 | 0.0 | 0.00 | 0.00 | 0.00 | 93 | 1021.9 |
| 20260830114032 | 17 | 263 | 0.0 | 0.0 | 0.00 | 0.00 | 0.00 | 94 | 1021.7 |
| 20260830113527 | 17 | 263 | 0.0 | 0.0 | 0.00 | 0.00 | 0.00 | 95 | 1021.9 |
| 20260830113023 | 17 | 263 | 0.0 | 0.0 | 0.00 | 0.00 | 0.00 | 95 | 1021.9 |
| 20260830112519 | 17 | 263 | 0.0 | 0.0 | 0.00 | 0.00 | 0.00 | 96 | 1021.9 |
| 20260830112015 | 17 | 263 | 0.0 | 0.0 | 0.00 | 0.00 | 0.00 | 95 | 1021.9 |
| 20260830111511 | 17 | 263 | 0.0 | 0.0 | 0.00 | 0.00 | 0.00 | 95 | 1021.7 |
| 20260830111007 | 17 | 263 | 0.0 | 0.0 | 0.00 | 0.00 | 0.00 | 95 | 1021.9 |
| 20260830110506 | 17 | 263 | 0.0 | 0.0 | 0.00 | 0.00 | 0.00 | 95 | 1021.8 |
| 20260830110001 | 17 | 263 | 0.0 | 0.0 | 0.00 | 0.00 | 0.00 | 95 | 1021.9 |
| 20260830105457 | 17 | 263 | 0.0 | 0.0 | 0.00 | 0.00 | 0.00 | 95 | 1021.8 |
| 20260830104953 | 17 | 263 | 0.0 | 0.0 | 0.00 | 0.00 | 0.00 | 95 | 1021.9 |
| 20260830104449 | 17 | 263 | 0.0 | 0.0 | 0.00 | 0.00 | 0.00 | 95 | 1021.7 |
| 20260830103944 | 17 | 263 | 1.6 | 1.6 | 0.00 | 0.00 | 0.00 | 95 | 1021.6 |
| 20260830103440 | 16 | 263 | 0.0 | 0.0 | 0.00 | 0.00 | 0.00 | 95 | 1021.9 |
| 20260830102937 | 16 | 263 | 0.0 | 0.0 | 0.00 | 0.00 | 0.00 | 95 | 1021.8 |
| 20260830102433 | 16 | 263 | 0.0 | 0.0 | 0.00 | 0.00 | 0.00 | 96 | 1021.7 |
| 20260830101929 | 17 | 263 | 0.0 | 0.0 | 0.00 | 0.00 | 0.00 | 96 | 1021.9 |
| 20260830101424 | 17 | 263 | 0.0 | 0.0 | 0.00 | 0.00 | 0.00 | 96 | 1022.0 |
| 20260830100924 | 17 | 263 | 0.0 | 0.0 | 0.00 | 0.00 | 0.00 | 96 | 1021.9 |
| 20260830100423 | 17 | 263 | 0.0 | 0.0 | 0.00 | 0.00 | 0.00 | 96 | 1021.9 |
| 20260830095922 | 17 | 263 | 0.0 | 0.0 | 0.00 | 0.00 | 0.00 | 96 | 1022.0 |
| 20260830095418 | 16 | 263 | 0.0 | 0.0 | 0.00 | 0.00 | 0.00 | 96 | 1022.0 |
| 20260830094914 | 16 | 263 | 0.0 | 0.0 | 0.00 | 0.00 | 0.00 | 97 | 1022.0 |
| 20260830094410 | 16 | 263 | 0.0 | 0.0 | 0.00 | 0.00 | 0.00 | 97 | 1022.0 |
| 20260830093906 | 16 | 263 | 0.0 | 0.0 | 0.00 | 0.00 | 0.00 | 97 | 1021.9 |
| 20260830093401 | 16 | 263 | 0.0 | 0.0 | 0.00 | 0.00 | 0.00 | 97 | 1022.0 |
| 20260830092856 | 16 | 263 | 0.0 | 0.0 | 0.00 | 0.00 | 0.00 | 97 | 1021.9 |
| 20260830092352 | 16 | 263 | 0.0 | 0.0 | 0.00 | 0.00 | 0.00 | 97 | 1021.7 |
| 20260830091848 | 16 | 263 | 3.2 | 1.6 | 0.00 | 0.00 | 0.00 | 97 | 1021.7 |
| 20260830091348 | 16 | 263 | 1.6 | 1.6 | 0.00 | 0.00 | 0.00 | 98 | 1021.7 |
| 20260830090847 | 16 | 263 | 0.0 | 0.0 | 0.00 | 0.00 | 0.00 | 98 | 1021.4 |
| 20260830090342 | 16 | 263 | 1.6 | 1.6 | 0.00 | 0.00 | 0.00 | 98 | 1021.7 |
| 20260830085842 | 16 | 263 | 0.0 | 0.0 | 0.00 | 0.00 | 0.00 | 98 | 1021.7 |
| 20260830085337 | 16 | 263 | 0.0 | 0.0 | 0.00 | 0.00 | 0.00 | 98 | 1021.9 |
| 20260830084833 | 16 | 263 | 0.0 | 0.0 | 0.00 | 0.00 | 0.00 | 98 | 1021.9 |
| 20260830084328 | 16 | 263 | 0.0 | 0.0 | 0.00 | 0.00 | 0.00 | 98 | 1021.9 |
| 20260830083823 | 16 | 263 | 0.0 | 0.0 | 0.00 | 0.00 | 0.00 | 98 | 1022.0 |
| 20260830083319 | 16 | 263 | 0.0 | 1.6 | 0.00 | 0.00 | 0.00 | 98 | 1021.9 |
| 20260830082819 | 16 | 263 | 0.0 | 0.0 | 0.00 | 0.00 | 0.00 | 98 | 1022.0 |
| 20260830082314 | 16 | 263 | 0.0 | 0.0 | 0.00 | 0.00 | 0.00 | 99 | 1022.1 |
| 20260830081809 | 16 | 263 | 0.0 | 0.0 | 0.00 | 0.00 | 0.00 | 99 | 1022.2 |
| 20260830081308 | 16 | 263 | 0.0 | 0.0 | 0.00 | 0.00 | 0.00 | 99 | 1022.2 |
| 20260830080803 | 16 | 263 | 0.0 | 0.0 | 0.00 | 0.00 | 0.00 | 99 | 1022.0 |
| 20260830080300 | 16 | 263 | 1.6 | 1.6 | 0.00 | 0.00 | 0.00 | 99 | 1022.2 |
| 20260830075759 | 16 | 263 | 0.0 | 0.0 | 0.00 | 0.00 | 0.00 | 99 | 1022.1 |
| 20260830075254 | 16 | 263 | 0.0 | 0.0 | 0.00 | 0.00 | 0.00 | 99 | 1021.9 |
| 20260830074749 | 16 | 263 | 0.0 | 0.0 | 0.00 | 0.00 | 0.00 | 99 | 1022.0 |
| 20260830074245 | 16 | 263 | 0.0 | 0.0 | 0.00 | 0.00 | 0.00 | 99 | 1022.2 |
| 20260830073741 | 16 | 263 | 0.0 | 0.0 | 0.00 | 0.00 | 0.00 | 99 | 1022.2 |
| 20260830073236 | 16 | 263 | 0.0 | 0.0 | 0.00 | 0.00 | 0.00 | 99 | 1022.1 |
| 20260830072731 | 16 | 263 | 0.0 | 0.0 | 0.00 | 0.00 | 0.00 | 99 | 1022.3 |
| 20260830072226 | 16 | 263 | 0.0 | 0.0 | 0.00 | 0.00 | 0.00 | 99 | 1022.1 |
| 20260830071721 | 16 | 263 | 0.0 | 0.0 | 0.00 | 0.00 | 0.00 | 99 | 1022.2 |
| 20260830071220 | 16 | 263 | 0.0 | 0.0 | 0.00 | 0.00 | 0.00 | 99 | 1022.3 |
| 20260830070714 | 16 | 263 | 0.0 | 0.0 | 0.00 | 0.00 | 0.00 | 99 | 1022.5 |
| 20260830070214 | 16 | 263 | 0.0 | 0.0 | 0.00 | 0.00 | 0.00 | 99 | 1022.4 |
| 20260830065713 | 16 | 263 | 0.0 | 0.0 | 0.00 | 0.00 | 0.00 | 99 | 1022.2 |
| 20260830065208 | 15 | 263 | 0.0 | 0.0 | 0.00 | 0.00 | 0.00 | 99 | 1022.1 |
| 20260830064706 | 15 | 263 | 0.0 | 0.0 | 0.00 | 0.00 | 0.00 | 98 | 1022.3 |
| 20260830064201 | 15 | 263 | 0.0 | 0.0 | 0.00 | 0.00 | 0.00 | 98 | 1022.3 |
| 20260830063656 | 15 | 263 | 0.0 | 0.0 | 0.00 | 0.00 | 0.00 | 98 | 1022.5 |
| 20260830063155 | 15 | 263 | 0.0 | 0.0 | 0.00 | 0.00 | 0.00 | 98 | 1022.6 |
| 20260830062650 | 15 | 263 | 0.0 | 0.0 | 0.00 | 0.00 | 0.00 | 98 | 1022.3 |
| 20260830062144 | 15 | 263 | 0.0 | 0.0 | 0.00 | 0.00 | 0.00 | 98 | 1022.5 |
| 20260830061639 | 15 | 263 | 0.0 | 0.0 | 0.00 | 0.00 | 0.00 | 98 | 1022.5 |
| 20260830061135 | 15 | 263 | 0.0 | 0.0 | 0.00 | 0.00 | 0.00 | 98 | 1022.5 |
| 20260830060632 | 15 | 263 | 0.0 | 0.0 | 0.00 | 0.00 | 0.00 | 98 | 1022.5 |
| 20260830060128 | 15 | 263 | 0.0 | 0.0 | 0.00 | 0.00 | 0.00 | 98 | 1022.6 |
| 20260830055622 | 15 | 263 | 0.0 | 0.0 | 0.00 | 0.00 | 0.00 | 98 | 1022.6 |
| 20260830055118 | 15 | 263 | 0.0 | 0.0 | 0.00 | 0.00 | 0.00 | 98 | 1022.6 |
| 20260830054613 | 15 | 263 | 0.0 | 0.0 | 0.00 | 0.00 | 0.00 | 98 | 1022.8 |
| 20260830054109 | 15 | 263 | 0.0 | 0.0 | 0.00 | 0.00 | 0.00 | 98 | 1022.6 |
| 20260830053604 | 15 | 263 | 0.0 | 0.0 | 0.00 | 0.00 | 0.00 | 98 | 1022.6 |
| 20260830053104 | 15 | 263 | 0.0 | 0.0 | 0.00 | 0.00 | 0.00 | 98 | 1022.6 |
| 20260830052554 | 15 | 263 | 0.0 | 0.0 | 0.00 | 0.00 | 0.00 | 98 | 1022.7 |
| 20260830052054 | 15 | 263 | 0.0 | 0.0 | 0.00 | 0.00 | 0.00 | 98 | 1022.5 |
| 20260830051549 | 15 | 263 | 0.0 | 0.0 | 0.00 | 0.00 | 0.00 | 98 | 1022.6 |
| 20260830051045 | 15 | 263 | 0.0 | 0.0 | 0.00 | 0.00 | 0.00 | 98 | 1022.8 |
| 20260830050538 | 15 | 263 | 0.0 | 0.0 | 0.00 | 0.00 | 0.00 | 98 | 1022.6 |
| 20260830050038 | 15 | 263 | 0.0 | 0.0 | 0.00 | 0.00 | 0.00 | 98 | 1022.5 |
| 20260830045537 | 15 | 263 | 0.0 | 0.0 | 0.00 | 0.00 | 0.00 | 98 | 1022.4 |